Probability
3 3 3 0 0 0 6 6 3 0 0 0 3 3 3 3 3 3 3 3 0 0 0 0 0 0 0 0 0 0 0 0 0 0 0 0 0 0 0 0 0 0 0
0 3 0 0 0 0 0 3 0 0 0 0 0 3 3 3 3 3 3 0 0 0 0 0 0 0 0 0 0 0 0 0 0 0 0 0 0 0 0 0 0 0 0
0 0 0 0 0 0 0 0 0 0 0 0 0 0 0 3 3 0 0 0 0 0 0 0 0 0 0 0 0 0 0 0 0 0 0 0 0 0 0 0 0 0 0
0 0 0 0 0 0 0 0 0 0 0 0 0 0 0 0 0 0 0 0 0 0 0 0 0 0 0 0 0 0 0 0 0 0 0 0 0 0 0 0 0 0 0
0 0 0 0 0 0 0 0 0 0 3 0 0 0 0 0 0 0 0 0 0 0 0 0 0 0 0 0 0 0 0 0 0 0 0 0 0 0 0 0 0 0 0
0 0 0 0 0 0 0 0 0 0 0 0 0 0 0 0 0 0 0 0 0 0 0 0 0 0 0 0 0 0 0 0 0 0 0 0 0 0 0 0 0 0 0
0 0 0 0 0 0 0 0 0 0 0 0 0 0 0 0 0 0 0 0 0 0 0 0 0 0 0 0 0 0 0 0 0 0 0 0 0 0 0 0 0 0 0
0 0 0 0 0 0 0 0 0 0 0 0 0 0 0 0 0 0 0 0 0 0 0 0 0 0 0 0 0 0 0 0 0 0 0 0 0 0 0 0 0 0 0
0 0 0 0 0 0 0 0 0 0 0 0 0 0 0 0 0 0 0 0 0 0 0 0 0 0 0 0 0 0 0 0 0 0 0 0 0 0 0 0 0 0 0
0 0 0 0 0 0 0 0 0 0 0 0 0 0 0 0 0 0 0 0 0 0 0 0 0 0 0 0 0 0 0 0 0 0 0 0 0 0 0 0 0 0 0
0 0 0 0 0 0 0 0 0 0 0 0 0 0 0 0 0 0 0 0 0 0 0 0 0 0 0 0 0 0 0 0 0 0 0 0 0 0 0 0 0 0 0
0 0 0 0 0 0 0 0 0 0 0 0 0 0 0 0 0 0 0 0 0 0 0 0 0 0 0 0 0 0 0 0 0 0 0 0 0 0 0 0 0 0 0
0 0 0 0 0 0 0 0 0 0 0 0 0 0 0 0 0 0 0 0 0 0 0 0 0 0 0 0 0 0 0 0 0 0 0 0 0 0 0 0 0 0 0
0 0 0 0 0 0 0 0 0 0 0 0 0 0 0 0 0 0 0 0 0 0 0 0 0 0 0 0 0 0 0 0 0 0 0 0 0 0 0 0 0 0 0
0 0 0 0 0 0 0 0 0 0 0 0 0 0 0 0 0 0 0 0 0 0 0 0 0 0 0 0 0 0 0 0 0 0 0 0 0 0 0 0 0 0 0
0 0 0 0 0 0 0 0 0 0 0 0 0 0 0 0 0 0 0 0 0 0 0 0 0 0 0 0 0 0 0 0 0 0 0 0 0 0 0 0 0 0 0
0 0 0 0 0 0 0 0 0 0 0 0 0 0 0 0 0 0 0 0 0 0 0 0 0 0 0 0 0 0 0 0 0 0 0 0 0 0 0 0 0 0 0
0 0 0 0 0 0 0 0 0 0 0 0 0 0 0 0 0 0 0 0 0 0 0 0 0 0 0 0 0 0 0 0 0 0 0 0 0 0 0 0 0 0 0
0 0 0 0 0 0 0 0 0 0 0 0 0 0 0 0 0 0 0 0 0 0 0 0 0 0 0 0 0 0 0 0 0 0 0 0 0 0 0 0 0 0 0
0 0 0 0 0 0 0 0 0 0 0 0 0 0 0 0 0 0 0 0 0 0 0 0 0 0 0 0 0 0 0 0 0 0 0 0 0 0 0 0 0 0 0
0 0 0 0 0 0 0 0 0 0 0 0 0 0 0 0 0 0 0 0 0 0 0 0 0 0 0 0 0 0 0 0 0 0 0 0 0 0 0 0 0 0 0
0 0 0 0 0 0 0 0 0 0 0 0 0 0 0 0 0 0 0 0 0 0 0 0 0 0 0 0 0 0 0 0 0 0 0 0 0 0 0 0 0 0 0
0 0 0 0 0 0 0 0 0 0 0 0 0 0 0 0 0 0 0 0 0 0 0 0 0 0 0 0 0 0 0 0 0 0 0 0 0 0 0 0 0 0 0
0 0 0 0 0 0 0 0 0 0 0 0 0 0 0 0 0 0 0 0 0 0 0 0 0 0 0 0 0 0 0 0 0 0 0 0 0 0 0 0 0 0 0
0 0 0 0 0 0 0 0 0 0 0 0 0 0 0 0 0 0 0 0 0 0 0 0 0 0 0 0 0 0 0 0 0 0 0 0 0 0 0 0 0 0 0
0 0 0 0 0 0 0 0 0 0 0 0 0 0 0 0 0 0 0 0 0 0 0 0 0 0 0 0 0 0 0 0 0 0 0 0 0 0 0 0 0 0 0
Height
5750 5755 5760 5766 5770 5775 5779 5783 5787 5791 5794 5797 5800 5802 5804 5806 5808 5810 5811 5812 5814 5814 5815 5816 5816 5816 5816 5816 5816 5815 5815 5814 5813 5812 5811 5810 5809 5808 5806 5804 5802 5800 5798
5741 5747 5752 5758 5763 5768 5772 5776 5780 5783 5787 5790 5792 5795 5797 5799 5801 5803 5804 5805 5807 5807 5808 5809 5809 5809 5809 5809 5809 5808 5807 5807 5806 5805 5804 5803 5803 5801 5799 5797 5795 5792 5790
5733 5739 5744 5750 5755 5760 5765 5769 5772 5776 5779 5782 5785 5787 5790 5792 5794 5796 5797 5798 5799 5800 5801 5801 5801 5802 5802 5801 5801 5801 5800 5799 5798 5797 5796 5794 5794 5793 5791 5789 5786 5784 5781
5724 5730 5736 5742 5747 5752 5756 5761 5764 5767 5771 5774 5777 5780 5782 5785 5786 5788 5789 5791 5791 5792 5793 5793 5794 5794 5794 5794 5793 5793 5792 5791 5790 5789 5787 5786 5784 5783 5782 5781 5778 5775 5772
5716 5722 5728 5734 5739 5743 5748 5752 5756 5760 5763 5766 5769 5771 5774 5776 5778 5780 5782 5783 5784 5784 5785 5786 5786 5786 5786 5786 5785 5785 5784 5783 5781 5780 5778 5777 5775 5772 5771 5770 5768 5766 5763
5707 5713 5719 5725 5730 5735 5739 5744 5748 5752 5755 5758 5760 5763 5766 5768 5770 5772 5773 5774 5775 5776 5777 5777 5777 5777 5777 5777 5777 5776 5775 5774 5772 5771 5769 5767 5765 5763 5761 5759 5757 5755 5753
5699 5704 5710 5716 5722 5727 5731 5736 5740 5743 5746 5749 5752 5754 5757 5759 5761 5763 5764 5766 5767 5768 5768 5768 5768 5769 5769 5768 5768 5767 5766 5765 5763 5761 5760 5758 5755 5753 5750 5748 5746 5744 5741
5690 5696 5702 5708 5713 5718 5723 5727 5731 5734 5737 5740 5743 5745 5748 5750 5752 5754 5756 5757 5758 5759 5759 5759 5759 5759 5759 5759 5758 5758 5757 5755 5754 5752 5749 5747 5745 5742 5739 5737 5734 5732 5730
5681 5687 5693 5699 5704 5709 5714 5718 5722 5725 5728 5731 5734 5737 5739 5741 5743 5745 5746 5747 5748 5749 5750 5750 5750 5750 5750 5749 5749 5748 5747 5745 5744 5741 5739 5737 5734 5731 5729 5725 5722 5719 5716
5672 5678 5684 5689 5694 5700 5704 5709 5713 5716 5719 5722 5725 5728 5730 5732 5734 5735 5737 5738 5739 5739 5740 5740 5740 5740 5740 5739 5738 5737 5736 5735 5733 5731 5728 5726 5723 5720 5717 5714 5710 5706 5704
5663 5668 5674 5679 5685 5690 5695 5699 5703 5707 5710 5713 5716 5718 5721 5723 5724 5726 5727 5728 5729 5729 5730 5730 5730 5730 5729 5729 5728 5727 5725 5724 5722 5719 5717 5714 5711 5709 5705 5702 5698 5695 5691
5654 5659 5665 5670 5675 5680 5685 5689 5693 5697 5700 5703 5706 5709 5711 5713 5714 5716 5717 5718 5719 5719 5719 5720 5719 5719 5719 5718 5717 5716 5714 5712 5710 5708 5705 5702 5699 5697 5693 5690 5686 5683 5678
5645 5650 5655 5660 5665 5670 5675 5680 5683 5687 5691 5694 5697 5699 5701 5703 5704 5706 5707 5707 5708 5708 5709 5709 5708 5708 5708 5707 5706 5704 5703 5701 5698 5696 5693 5690 5687 5685 5681 5678 5674 5670 5666
5637 5641 5646 5651 5656 5660 5665 5670 5674 5677 5681 5684 5687 5689 5691 5693 5694 5695 5696 5697 5697 5698 5698 5697 5697 5697 5696 5695 5694 5693 5691 5689 5686 5684 5681 5678 5675 5672 5669 5665 5662 5658 5654
5628 5633 5637 5641 5646 5651 5655 5660 5664 5667 5670 5673 5676 5679 5680 5682 5683 5685 5686 5686 5687 5687 5686 5686 5686 5685 5684 5684 5682 5681 5679 5677 5674 5672 5669 5666 5663 5659 5656 5653 5649 5645 5641
5620 5624 5628 5632 5637 5641 5645 5649 5653 5657 5660 5663 5665 5668 5669 5671 5673 5674 5674 5675 5675 5675 5675 5675 5674 5673 5672 5671 5670 5668 5667 5664 5662 5659 5656 5653 5650 5647 5644 5640 5636 5633 5629
5611 5615 5618 5622 5627 5631 5635 5639 5642 5646 5649 5651 5654 5656 5658 5660 5661 5662 5663 5664 5664 5664 5664 5663 5662 5662 5660 5659 5657 5656 5654 5652 5649 5646 5644 5641 5638 5634 5631 5628 5624 5620 5616
5601 5605 5609 5612 5616 5620 5624 5628 5631 5634 5637 5640 5642 5645 5647 5648 5650 5651 5652 5652 5652 5652 5652 5651 5651 5650 5648 5646 5645 5643 5641 5639 5636 5634 5631 5628 5625 5622 5618 5615 5612 5608 5604
5592 5596 5599 5603 5606 5609 5613 5616 5620 5623 5626 5628 5631 5633 5635 5637 5638 5639 5640 5640 5640 5640 5640 5640 5639 5638 5636 5634 5632 5630 5628 5626 5624 5621 5618 5615 5612 5609 5606 5603 5600 5596 5592
5583 5586 5589 5593 5596 5599 5602 5605 5609 5612 5614 5617 5619 5621 5623 5625 5626 5627 5628 5628 5628 5628 5628 5627 5626 5625 5623 5621 5619 5617 5615 5613 5611 5609 5605 5602 5599 5596 5592 5589 5586 5583 5579
5574 5577 5579 5582 5586 5588 5591 5595 5598 5600 5603 5606 5608 5610 5612 5613 5614 5615 5615 5616 5616 5616 5616 5615 5614 5613 5611 5609 5606 5604 5602 5600 5598 5596 5593 5590 5586 5583 5579 5576 5573 5569 5566
5564 5567 5570 5572 5575 5578 5581 5584 5586 5589 5591 5594 5596 5598 5600 5601 5602 5603 5603 5604 5604 5604 5604 5603 5602 5600 5598 5596 5594 5591 5589 5587 5585 5583 5580 5577 5573 5570 5567 5563 5560 5557 5553
5555 5557 5560 5562 5565 5568 5570 5573 5575 5577 5580 5582 5584 5586 5587 5589 5590 5591 5591 5591 5592 5592 5591 5591 5590 5588 5586 5583 5581 5579 5576 5574 5572 5569 5567 5564 5561 5558 5555 5551 5548 5545 5542
5546 5548 5550 5552 5555 5557 5560 5562 5564 5566 5568 5570 5572 5574 5575 5577 5577 5578 5579 5579 5579 5579 5579 5578 5577 5575 5573 5571 5569 5566 5564 5562 5559 5557 5554 5551 5549 5546 5543 5540 5536 5533 5530
5536 5538 5540 5543 5545 5547 5549 5551 5553 5555 5557 5559 5560 5562 5563 5564 5565 5566 5567 5567 5567 5566 5566 5565 5564 5563 5561 5559 5556 5554 5552 5549 5547 5545 5542 5540 5537 5535 5532 5528 5525 5522 5519
5526 5528 5530 5533 5535 5537 5539 5541 5542 5544 5545 5547 5548 5550 5551 5552 5553 5554 5555 5554 5554 5554 5553 5552 5551 5550 5548 5546 5544 5542 5540 5537 5535 5533 5531 5529 5526 5523 5521 5517 5514 5511 5508
Wind_Speed
46 44 44 43 43 42 41 40 39 38 37 36 35 35 34 33 33 32 32 32 31 31 31 31 31 31 32 32 32 32 33 33 33 33 33 33 33 34 35 35 36 36 37
47 45 45 44 43 42 41 40 39 39 38 37 37 36 35 35 34 34 34 33 33 33 33 33 33 33 33 33 33 34 34 34 34 34 35 35 35 35 36 37 38 38 38
47 46 46 44 43 42 41 40 40 39 39 39 38 38 37 36 36 36 36 35 35 34 34 34 34 34 34 34 34 34 35 35 35 36 36 37 37 37 37 38 39 40 40
48 47 46 45 44 43 42 41 40 39 39 39 39 39 38 37 37 37 36 37 37 36 36 35 35 35 35 35 35 35 36 36 37 37 38 39 39 39 39 40 41 42 42
48 47 46 45 44 44 43 42 41 40 40 40 39 39 39 39 39 38 37 37 37 37 37 36 36 36 36 36 36 36 37 38 38 39 39 40 41 42 42 41 42 43 43
47 47 46 46 45 44 43 42 41 40 40 40 40 40 40 40 40 39 39 39 39 38 38 38 37 37 37 37 37 38 38 39 40 41 41 42 43 44 44 44 44 43 44
48 48 47 46 45 45 44 43 42 42 41 41 41 41 41 40 41 40 40 40 40 40 39 39 39 38 38 38 39 39 39 40 41 42 43 43 44 45 45 46 46 46 46
47 48 47 46 46 45 44 43 43 42 42 42 41 41 41 41 41 41 41 41 40 40 41 41 40 40 40 40 40 40 41 42 43 43 44 44 45 46 46 47 48 49 48
46 46 47 47 47 46 45 44 44 43 42 42 42 41 41 41 41 41 41 41 41 41 41 41 41 41 41 41 42 42 42 43 44 44 45 45 46 47 48 49 50 51 50
44 46 46 47 47 47 46 45 45 44 43 42 42 42 41 41 41 41 42 42 42 42 42 42 41 42 42 43 43 44 44 44 45 45 46 46 47 48 48 49 50 51 52
44 45 46 47 47 47 47 46 45 45 44 44 43 42 41 41 42 42 43 43 43 43 43 43 43 43 43 44 45 46 46 46 46 46 47 48 49 49 49 50 50 51 52
43 45 46 46 46 47 47 46 46 46 45 45 44 43 42 42 42 42 43 44 44 44 44 44 45 45 45 45 46 47 47 48 48 48 48 49 50 51 50 50 51 51 52
42 43 44 45 46 47 47 47 46 46 46 46 45 45 44 43 43 43 44 44 44 45 45 46 46 46 46 47 47 47 48 48 49 49 50 50 51 51 51 51 51 52 52
40 42 43 44 45 46 47 46 47 46 46 46 46 45 45 45 45 45 45 45 45 45 45 46 46 47 47 47 48 48 49 49 49 50 50 50 51 51 51 51 52 52 52
39 41 42 44 44 45 46 47 47 47 47 47 47 46 46 46 45 46 46 46 46 46 46 46 47 47 47 48 48 49 49 49 50 50 51 51 51 52 52 52 51 52 51
39 40 42 43 44 45 46 47 47 47 47 47 47 47 47 47 47 47 47 47 47 47 47 47 47 47 48 48 49 49 49 49 50 50 51 50 51 51 52 52 52 52 52
38 40 42 43 45 45 46 46 47 47 47 47 47 47 48 47 47 47 46 47 47 47 47 47 47 47 48 49 49 49 50 50 50 51 51 51 51 51 51 51 51 52 52
38 40 41 42 43 44 45 46 46 47 48 48 47 47 48 48 47 47 47 47 47 47 47 47 47 48 49 49 50 50 51 51 50 50 51 50 51 51 51 51 51 51 52
37 38 40 41 42 43 45 46 47 47 47 48 48 48 48 47 47 47 47 47 47 47 47 48 48 49 49 50 50 51 51 50 50 50 50 50 50 50 51 51 50 51 51
36 37 38 39 41 42 44 45 46 46 47 47 46 46 46 46 46 45 46 46 47 47 47 47 48 48 49 49 50 50 49 49 49 49 49 49 50 50 50 50 50 50 49
36 37 38 38 39 40 42 44 45 45 46 46 46 46 45 45 45 45 46 46 47 46 46 47 47 48 49 49 49 49 49 49 48 48 48 49 49 49 49 49 49 48 48
34 36 38 38 39 39 39 41 43 44 45 46 46 46 46 45 45 46 46 46 46 46 47 47 47 47 47 48 48 48 48 48 48 48 48 48 48 47 47 47 47 47 46
33 34 36 37 38 39 39 39 41 42 43 44 45 45 45 45 45 46 46 46 46 46 46 46 46 46 47 47 47 47 47 47 47 48 47 47 46 46 46 46 46 46 45
34 34 34 35 37 37 38 39 39 40 41 42 44 45 46 46 46 46 45 45 45 45 46 46 46 46 46 46 46 46 46 46 47 46 45 44 44 44 44 45 45 45 44
34 35 35 36 36 37 37 37 38 39 40 41 42 43 45 46 46 46 46 46 46 46 45 46 46 45 45 45 45 45 44 44 44 43 42 42 42 43 43 43 43 43 42
33 35 36 37 37 37 38 38 38 39 39 40 41 42 43 44 45 45 45 45 45 45 46 45 45 44 44 44 44 43 43 42 41 40 40 41 41 41 42 42 42 41 41
Wind_Direction
232 232 233 234 235 236 237 239 240 242 243 244 246 248 250 252 254 256 258 260 263 264 267 269 271 273 274 276 277 279 280 281 282 283 284 285 286 288 289 290 291 292 293
232 233 234 235 236 237 238 239 240 241 243 244 246 248 250 252 254 256 258 260 263 265 267 269 270 272 275 276 277 278 280 281 282 284 284 285 286 288 289 290 291 292 293
233 233 234 235 236 237 238 240 241 242 243 245 247 249 251 253 254 255 257 259 262 265 267 269 270 272 274 276 277 278 280 281 283 284 285 286 287 288 289 290 290 291 292
233 233 234 235 236 237 238 239 240 241 243 245 247 249 251 253 254 255 257 259 262 264 266 269 271 272 274 276 277 278 280 281 283 285 286 287 288 288 289 290 290 291 292
234 234 234 235 236 237 238 239 241 242 244 246 248 250 251 252 254 255 257 260 262 264 266 269 270 272 274 275 277 278 280 282 283 285 287 288 289 289 289 290 291 291 292
233 234 234 234 236 237 239 240 242 243 245 247 248 250 252 253 254 256 257 259 261 263 265 268 270 272 274 275 276 278 280 282 284 285 287 288 289 289 289 290 290 290 292
233 234 234 235 236 238 239 241 242 244 245 247 249 251 253 254 254 256 257 259 261 263 265 268 269 271 273 275 276 278 280 282 284 286 287 288 289 289 289 290 290 291 292
234 235 235 236 236 237 239 241 242 244 246 248 250 252 253 254 256 257 258 259 261 263 266 268 270 271 272 274 277 279 281 283 285 287 287 288 288 289 289 290 291 292 293
235 235 235 236 236 237 239 241 242 244 246 248 250 252 254 255 257 258 259 260 262 264 266 268 270 272 273 275 277 279 281 284 285 286 287 287 288 289 290 291 291 292 292
235 236 236 236 237 238 239 241 242 244 246 248 250 252 254 255 257 258 260 262 263 265 267 269 270 272 274 276 277 279 281 283 285 286 287 287 288 289 290 291 292 292 293
236 236 236 236 237 238 239 241 242 244 245 248 250 252 254 255 257 259 261 263 265 266 267 269 271 273 275 277 278 280 282 283 285 286 287 287 288 289 291 292 292 293 294
237 237 237 237 238 239 240 242 243 244 245 247 250 251 253 256 258 260 262 264 265 266 268 269 271 273 275 277 279 281 282 283 285 286 286 287 288 289 291 292 293 294 294
238 237 238 238 238 239 240 241 243 245 246 248 250 252 254 257 260 261 263 265 266 267 269 270 271 273 275 277 279 280 282 283 285 286 286 287 288 289 291 292 293 293 294
237 237 237 238 238 239 240 242 243 245 247 249 251 253 255 258 260 262 263 265 267 269 271 272 272 274 275 277 279 281 282 283 284 286 287 287 288 289 291 292 292 293 294
238 238 238 238 239 240 241 242 244 246 248 249 251 253 255 258 260 262 264 265 268 270 272 273 274 275 276 277 279 281 283 284 285 286 287 287 288 289 290 291 292 292 293
240 240 239 239 239 240 242 243 244 246 248 250 251 253 255 258 260 263 264 266 268 270 272 273 274 275 276 277 279 281 283 284 286 286 287 288 288 289 289 290 291 291 292
242 241 241 241 241 241 242 243 244 246 248 249 252 254 256 258 260 262 264 266 268 270 271 273 274 275 276 278 279 281 283 284 286 286 287 287 287 288 289 290 290 291 292
244 244 244 243 242 242 242 243 245 247 249 251 253 255 256 258 260 262 265 267 269 270 272 273 275 276 277 278 279 281 283 284 285 286 287 287 287 288 289 289 290 291 292
245 245 245 244 243 243 244 245 246 248 249 251 253 255 257 259 261 263 265 267 269 270 272 273 275 277 278 280 281 282 283 283 284 285 286 286 287 288 289 289 290 291 292
245 245 245 245 244 245 245 246 247 248 250 252 254 256 257 259 262 264 265 266 268 270 272 274 276 277 279 281 281 282 282 283 284 285 286 286 287 288 289 289 289 290 291
247 246 245 245 244 245 246 247 248 250 252 253 254 256 258 260 262 264 266 267 269 270 272 275 277 278 280 282 282 282 282 284 285 285 286 287 287 287 288 289 289 290 290
249 247 246 246 245 246 248 249 250 251 252 254 255 256 259 260 262 265 267 268 270 271 273 275 278 279 281 282 283 283 283 284 285 286 287 287 287 287 288 289 289 290 291
249 248 247 247 246 247 248 249 250 251 253 254 256 258 260 262 263 265 267 269 270 272 273 275 277 279 281 282 284 284 285 285 286 286 286 287 287 287 288 288 289 290 290
248 247 247 248 248 249 250 251 252 253 254 255 257 258 260 262 264 265 267 269 271 272 274 276 278 279 280 282 284 285 285 285 286 286 286 286 286 287 288 289 290 291 291
248 248 248 248 249 250 251 252 254 255 256 258 259 261 262 263 264 265 267 269 271 273 275 277 279 279 280 281 283 284 285 286 287 286 286 286 286 287 288 290 290 291 291
250 249 250 250 251 252 253 255 256 257 258 259 260 262 264 263 264 266 268 270 273 275 277 278 279 280 281 282 283 284 285 286 286 287 287 287 286 287 289 290 290 290 291